Location: Baller�as
(41.9020°N, 0.1554°W)
Time: 00:55:37
(UTC+00:00)

Okean 1 - Pass Details

Date: 10 August 2020
Orbit: 539 x 554 km, 82.5° (Epoch: 22 September)

Event Time Altitude Azimuth Distance (km) Brightness Sun altitude
Rises 21:50:04 0° 348° (NNW) 2,739 7.9 -24.9°
Reaches altitude 10° 21:52:16 10° 344° (NNW) 1,841 6.9 -25.1°
Enters shadow 21:55:53 55° 291° (WNW) 670 3.9 -25.5°
